Weather History for KLWS - January, 2014

Change the Weather History Date:

Sunday, January 19, 2014

  Actual Average Record
Temperature  
Mean Temperature 31 °F 36 °F  
Max Temperature 34 °F 42 °F 60 °F (2005)
Min Temperature 27 °F 30 °F -14 °F (1883)
Degree Days  
Heating Degree Days 34 29  
Month to date heating degree days 519 572  
Since 1 July heating degree days 2927 2780  
Cooling Degree Days 0 0  
Month to date cooling degree days 0 0  
Year to date cooling degree days 0 0  
Moisture  
Dew Point 26 °F    
Average Humidity 84    
Maximum Humidity 92    
Minimum Humidity 75    
Precipitation  
Precipitation 0.00 in 0.03 in 0.55 in (2012)
Month to date precipitation 0.33 0.68  
Year to date precipitation 0.33 0.68  
Snow  
Snow 0.00 in 0.10 in 2.30 in (1957)
Month to date snowfall T 1.6  
Since 1 July snowfall 2.5 6.9  
Snow Depth 0.00 in    
Sea Level Pressure  
Sea Level Pressure 30.25 in    
Wind  
Wind Speed 2 mph (SSW)    
Max Wind Speed 9 mph    
Max Gust Speed 11 mph    
Visibility 4 miles    
Events Fog    
T = Trace of Precipitation, MM = Missing Value Source: NWS Daily Summary

Daily Weather History Graph

Daily Weather History Graph

Search for Another Location

Airport or City:

Trip Planner

Search our weather history database for the weather conditions in past years. The results will help you decide how hot, cold, wet, or windy it might be!

Date:

Astronomy

Jan. 19, 2014 Rise Set
Actual Time 7:24 AM PST 4:33 PM PST
Civil Twilight 6:51 AM PST 5:07 PM PST
Nautical Twilight 6:13 AM PST 5:44 PM PST
Astronomical Twilight 5:38 AM PST 6:20 PM PST
Moon 8:31 PM PST (1/19) 8:42 AM PST (1/19)
Length of Visible Light 10h 16m
Length of Day
9h 09m
Waning Gibbous, 89% of the Moon is Illuminated
Jan 19
Waning Gibbous
Jan 23
Last Quarter
Jan 30
New
Feb 6
First Quarter
Feb 14
Full

Hourly Weather History & Observations

Time (PST) Temp. Windchill Dew Point Humidity Pressure Visibility Wind Dir Wind Speed Gust Speed Precip Events Conditions
12:22 AM 30.0 °F - 27.0 °F 88% 30.23 in 0.5 mi Calm Calm - N/A Fog Light Freezing Fog
12:50 AM 30.2 °F - 26.6 °F 86% 30.24 in 1.5 mi Calm Calm - N/A   Overcast
12:51 AM 30.0 °F - 27.0 °F 88% 30.29 in 1.5 mi Calm Calm - N/A   Overcast
1:02 AM 30.0 °F 26.5 °F 27.0 °F 88% 30.23 in 0.8 mi ENE 3.5 mph - N/A   Mist
1:36 AM 28.9 °F 22.8 °F 27.0 °F 92% 30.21 in 0.2 mi SE 5.8 mph - N/A Fog Light Freezing Fog
1:48 AM 28.9 °F - 27.0 °F 92% 30.20 in 0.2 mi Calm Calm - N/A Fog Light Freezing Fog
1:56 AM 28.9 °F - 27.0 °F 92% 30.25 in 0.2 mi Calm Calm - N/A Fog Light Freezing Fog
2:04 AM 28.9 °F 22.8 °F 27.0 °F 92% 30.20 in 0.5 mi NE 5.8 mph - N/A Fog Light Freezing Fog
2:56 AM 28.9 °F 22.8 °F 26.1 °F 89% 30.24 in 0.5 mi ENE 5.8 mph - N/A Fog Light Freezing Fog
3:28 AM 28.0 °F 24.2 °F 26.1 °F 92% 30.20 in 0.2 mi ESE 3.5 mph - N/A Fog Light Freezing Fog
3:56 AM 28.0 °F - 26.1 °F 92% 30.25 in 0.5 mi Calm Calm - N/A Fog Light Freezing Fog
4:11 AM 28.9 °F - 26.1 °F 89% 30.20 in 0.2 mi Calm Calm - N/A Fog Light Freezing Fog
4:56 AM 28.9 °F - 27.0 °F 92% 30.24 in 0.5 mi Calm Calm - N/A Fog Light Freezing Fog
5:09 AM 28.9 °F - 26.1 °F 89% 30.18 in 0.2 mi Calm Calm - N/A Fog Light Freezing Fog
5:20 AM 28.9 °F - 26.1 °F 89% 30.18 in 0.5 mi Calm Calm - N/A Fog Light Freezing Fog
5:31 AM 28.9 °F - 26.1 °F 89% 30.18 in 1.0 mi Calm Calm - N/A   Mist
5:44 AM 28.0 °F 21.7 °F 25.0 °F 88% 30.18 in 2.0 mi ENE 5.8 mph - N/A   Overcast
5:52 AM 28.4 °F 24.6 °F 24.8 °F 86% 30.17 in 1.2 mi Variable 3.5 mph - N/A   Overcast
5:56 AM 28.0 °F - 26.1 °F 92% 30.23 in 0.8 mi Calm Calm - N/A   Overcast
6:09 AM 28.0 °F - 26.1 °F 92% 30.17 in 0.2 mi Calm Calm - N/A Fog Light Freezing Fog
6:52 AM 28.4 °F - 26.6 °F 93% 30.18 in 0.5 mi Calm Calm - N/A Fog Light Freezing Fog
6:56 AM 28.9 °F - 25.0 °F 85% 30.23 in 0.5 mi Calm Calm - N/A Fog Light Freezing Fog
7:08 AM 28.9 °F 25.2 °F 26.1 °F 89% 30.18 in 1.5 mi NW 3.5 mph - N/A   Overcast
7:19 AM 28.0 °F - 25.0 °F 88% 30.19 in 2.5 mi Calm Calm - N/A   Overcast
7:32 AM 28.0 °F - 26.1 °F 92% 30.19 in 1.2 mi Calm Calm - N/A   Overcast
7:43 AM 28.9 °F - 26.1 °F 89% 30.19 in 0.5 mi Calm Calm - N/A Fog Light Freezing Fog
7:56 AM 28.9 °F - 26.1 °F 89% 30.24 in 0.2 mi Calm Calm - N/A Fog Light Freezing Fog
8:23 AM 28.9 °F - 27.0 °F 92% 30.20 in 0.5 mi Calm Calm - N/A Fog Light Freezing Fog
8:32 AM 28.9 °F - 27.0 °F 92% 30.20 in 1.5 mi Calm Calm - N/A   Overcast
8:51 AM 28.4 °F - 26.6 °F 93% 30.21 in 0.8 mi Calm Calm - N/A   Overcast
8:56 AM 28.9 °F - 27.0 °F 92% 30.27 in 0.5 mi Calm Calm - N/A Fog Light Freezing Fog
9:27 AM 28.9 °F 23.9 °F 27.0 °F 92% 30.22 in 1.8 mi South 4.6 mph - N/A   Overcast
9:30 AM 28.9 °F 23.9 °F 27.0 °F 92% 30.22 in 3.0 mi South 4.6 mph - N/A   Overcast
9:56 AM 28.9 °F 25.2 °F 26.1 °F 89% 30.27 in 7.0 mi South 3.5 mph - N/A   Overcast
10:10 AM 28.9 °F - 27.0 °F 92% 30.22 in 9.0 mi Calm Calm - N/A   Overcast
10:56 AM 30.0 °F - 27.0 °F 88% 30.26 in 6.0 mi Calm Calm - N/A   Overcast
11:43 AM 30.0 °F 26.5 °F 27.0 °F 88% 30.21 in 4.0 mi NNW 3.5 mph - N/A   Overcast
11:56 AM 30.0 °F - 27.0 °F 88% 30.26 in 4.0 mi Calm Calm - N/A   Overcast
12:11 PM 30.0 °F - 27.0 °F 88% 30.21 in 5.0 mi Calm Calm - N/A   Overcast
12:56 PM 30.9 °F - 27.0 °F 85% 30.26 in 6.0 mi Calm Calm - N/A   Overcast
1:56 PM 32.0 °F - 27.0 °F 82% 30.26 in 10.0 mi Calm Calm - N/A   Overcast
2:23 PM 33.1 °F - 28.0 °F 82% 30.20 in 10.0 mi Calm Calm - N/A   Scattered Clouds
2:56 PM 33.1 °F 28.7 °F 27.0 °F 78% 30.26 in 10.0 mi NNE 4.6 mph - N/A   Scattered Clouds
3:56 PM 33.1 °F - 27.0 °F 78% 30.26 in 9.0 mi Calm Calm - N/A   Clear
4:56 PM 33.1 °F 30.0 °F 27.0 °F 78% 30.30 in 9.0 mi SW 3.5 mph - N/A   Mostly Cloudy
5:56 PM 32.0 °F 25.6 °F 27.0 °F 82% 30.31 in 10.0 mi SW 6.9 mph - N/A   Overcast
6:56 PM 32.0 °F 28.7 °F 27.0 °F 82% 30.32 in 10.0 mi West 3.5 mph - N/A   Partly Cloudy
7:56 PM 30.0 °F 25.2 °F 25.0 °F 82% 30.34 in 10.0 mi West 4.6 mph - N/A   Partly Cloudy
8:56 PM 28.9 °F 21.9 °F 25.0 °F 85% 30.37 in 10.0 mi SW 6.9 mph - N/A   Partly Cloudy
9:56 PM 28.0 °F 21.7 °F 24.1 °F 85% 30.39 in 10.0 mi West 5.8 mph - N/A   Partly Cloudy
10:56 PM 28.9 °F - 24.1 °F 82% 30.42 in 10.0 mi Calm Calm - N/A   Clear
11:22 PM 28.0 °F 22.8 °F 23.0 °F 81% 30.37 in 10.0 mi South 4.6 mph - N/A   Mostly Cloudy
11:56 PM 28.0 °F 20.0 °F 24.1 °F 85% 30.43 in 10.0 mi WSW 8.1 mph - N/A   Mostly Cloudy